| time (UTC) | temp C | wind direction | speed KPH | gust KPH | rain 1hr cm | rain 24hr cm | rain mn cm | humidity % | barometer mb |
| 20260509141537 | 8 | 213 | 0.0 | 0.0 | 0.00 | 0.00 | 0.00 | 30 | 1007.3 |
| 20260509140036 | 8 | 213 | 0.0 | 0.0 | 0.00 | 0.00 | 0.00 | 29 | 1006.8 |
| 20260509134538 | 7 | 213 | 0.0 | 0.0 | 0.00 | 0.00 | 0.00 | 28 | 1006.8 |
| 20260509133034 | 7 | 213 | 0.0 | 0.0 | 0.00 | 0.00 | 0.00 | 25 | 1006.8 |
| 20260509131548 | 7 | 213 | 0.0 | 0.0 | 0.00 | 0.00 | 0.00 | 24 | 1006.7 |
| 20260509130042 | 7 | 213 | 0.0 | 0.0 | 0.00 | 0.00 | 0.00 | 23 | 1005.7 |
| 20260509124531 | 7 | 213 | 0.0 | 0.0 | 0.00 | 0.00 | 0.00 | 23 | 1005.6 |
| 20260509123029 | 7 | 213 | 0.0 | 0.0 | 0.00 | 0.00 | 0.00 | 22 | 1005.6 |
| 20260509121524 | 7 | 213 | 0.0 | 0.0 | 0.00 | 0.00 | 0.00 | 21 | 1005.6 |
| 20260509120023 | 7 | 213 | 0.0 | 0.0 | 0.00 | 0.00 | 0.00 | 20 | 1005.6 |
| 20260509114522 | 7 | 213 | 0.0 | 0.0 | 0.00 | 0.00 | 0.00 | 20 | 1005.2 |
| 20260509113021 | 7 | 213 | 0.0 | 0.0 | 0.00 | 0.00 | 0.00 | 20 | 1005.3 |
| 20260509111520 | 7 | 213 | 0.0 | 0.0 | 0.00 | 0.00 | 0.00 | 20 | 1005.4 |
| 20260509110024 | 7 | 213 | 0.0 | 0.0 | 0.00 | 0.00 | 0.00 | 19 | 1004.8 |
| 20260509104518 | 7 | 213 | 0.0 | 0.0 | 0.00 | 0.00 | 0.00 | 19 | 1004.9 |
| 20260509103020 | 7 | 213 | 0.0 | 0.0 | 0.00 | 0.00 | 0.00 | 18 | 1005.0 |
| 20260509101521 | 7 | 213 | 0.0 | 0.0 | 0.00 | 0.00 | 0.00 | 18 | 1005.0 |
| 20260509100018 | 7 | 213 | 0.0 | 0.0 | 0.00 | 0.00 | 0.00 | 18 | 1004.4 |
| 20260509094515 | 7 | 213 | 0.0 | 0.0 | 0.00 | 0.00 | 0.00 | 17 | 1004.6 |
| 20260509093019 | 7 | 213 | 0.0 | 0.0 | 0.00 | 0.00 | 0.00 | 15 | 1004.6 |
| 20260509091511 | 7 | 213 | 0.0 | 0.0 | 0.00 | 0.00 | 0.00 | 15 | 1004.9 |
| 20260509090009 | 7 | 213 | 0.0 | 0.0 | 0.00 | 0.00 | 0.00 | 16 | 1004.9 |
| 20260509084512 | 8 | 213 | 0.0 | 0.0 | 0.00 | 0.00 | 0.00 | 16 | 1005.1 |
| 20260509083007 | 8 | 213 | 0.0 | 0.0 | 0.00 | 0.00 | 0.00 | 15 | 1005.2 |
| 20260509081508 | 8 | 213 | 0.0 | 0.0 | 0.00 | 0.00 | 0.00 | 15 | 1005.2 |
| 20260509080004 | 8 | 213 | 0.0 | 0.0 | 0.00 | 0.00 | 0.00 | 15 | 1004.9 |
| 20260509074503 | 8 | 213 | 0.0 | 0.0 | 0.00 | 0.00 | 0.00 | 16 | 1004.9 |
| 20260509073004 | 8 | 213 | 0.0 | 0.0 | 0.00 | 0.00 | 0.00 | 16 | 1005.0 |
| 20260509071504 | 8 | 213 | 0.0 | 0.0 | 0.00 | 0.00 | 0.00 | 16 | 1005.1 |
| 20260509070001 | 9 | 213 | 0.0 | 0.0 | 0.00 | 0.00 | 0.00 | 15 | 1005.7 |
| 20260509064501 | 9 | 213 | 0.0 | 0.0 | 0.00 | 0.00 | 0.00 | 14 | 1005.4 |
| 20260509063001 | 9 | 213 | 0.0 | 0.0 | 0.00 | 0.00 | 0.00 | 15 | 1005.3 |
| 20260509061619 | 10 | 213 | 0.0 | 0.0 | 0.00 | 0.00 | 0.00 | 18 | 1005.4 |
| 20260509054616 | 10 | 213 | 0.0 | 0.0 | 0.00 | 0.00 | 0.00 | 15 | 1005.8 |
| 20260509053144 | 10 | 213 | 0.0 | 0.0 | 0.00 | 0.00 | 0.00 | 18 | 1005.9 |
| 20260509051558 | 10 | 213 | 0.0 | 0.0 | 0.00 | 0.00 | 0.00 | 19 | 1005.9 |
| 20260509050059 | 11 | 213 | 0.0 | 0.0 | 0.00 | 0.00 | 0.00 | 24 | 1006.2 |
| 20260509044557 | 11 | 213 | 0.0 | 0.0 | 0.00 | 0.00 | 0.00 | 26 | 1006.1 |
| 20260509043058 | 11 | 213 | 0.0 | 0.0 | 0.00 | 0.00 | 0.00 | 27 | 1006.0 |
| 20260509041556 | 11 | 213 | 0.0 | 0.0 | 0.00 | 0.00 | 0.00 | 29 | 1005.5 |
| 20260509040112 | 12 | 213 | 0.0 | 0.0 | 0.00 | 0.00 | 0.00 | 30 | 1006.0 |
| 20260509034622 | 12 | 213 | 0.0 | 0.0 | 0.00 | 0.00 | 0.00 | 34 | 1006.0 |
| 20260509033055 | 13 | 213 | 0.0 | 0.0 | 0.00 | 0.00 | 0.00 | 37 | 1005.2 |
| 20260509031554 | 13 | 213 | 0.0 | 0.0 | 0.00 | 0.00 | 0.00 | 37 | 1004.7 |
| 20260509030105 | 14 | 213 | 0.0 | 0.0 | 0.00 | 0.00 | 0.00 | 37 | 1006.8 |
| 20260509024554 | 14 | 213 | 0.0 | 0.0 | 0.00 | 0.00 | 0.00 | 36 | 1006.3 |
| 20260509023053 | 15 | 213 | 0.0 | 0.0 | 0.00 | 0.00 | 0.00 | 33 | 1005.8 |
| 20260509021552 | 16 | 213 | 0.0 | 0.0 | 0.00 | 0.00 | 0.00 | 30 | 1005.6 |
| 20260509020051 | 16 | 213 | 0.0 | 0.0 | 0.00 | 0.00 | 0.00 | 28 | 1007.0 |
| 20260509014551 | 16 | 213 | 0.0 | 0.0 | 0.00 | 0.00 | 0.00 | 29 | 1006.4 |
| 20260509013107 | 17 | 213 | 0.0 | 0.0 | 0.00 | 0.00 | 0.00 | 28 | 1006.5 |
| 20260509011559 | 17 | 213 | 0.0 | 0.0 | 0.00 | 0.00 | 0.00 | 27 | 1006.2 |
| 20260509010049 | 19 | 210 | 1.6 | 0.0 | 0.00 | 0.00 | 0.00 | 24 | 1005.9 |
| 20260509004548 | 20 | 140 | 1.6 | 0.0 | 0.00 | 0.00 | 0.00 | 22 | 1005.8 |
| 20260509003108 | 20 | 196 | 1.6 | 0.0 | 0.00 | 0.00 | 0.00 | 23 | 1006.0 |
| 20260509001547 | 19 | 219 | 1.6 | 0.0 | 0.00 | 0.00 | 0.00 | 23 | 1006.6 |
| 20260509000101 | 19 | 198 | 1.6 | 0.0 | 0.00 | 0.00 | 0.00 | 23 | 1006.0 |
| 20260508234546 | 20 | 195 | 1.6 | 0.0 | 0.00 | 0.00 | 0.00 | 27 | 1005.9 |
| 20260508233047 | 20 | 143 | 1.6 | 0.0 | 0.00 | 0.00 | 0.00 | 27 | 1006.0 |
| 20260508231548 | 21 | 232 | 1.6 | 0.0 | 0.00 | 0.00 | 0.00 | 26 | 1005.6 |
| 20260508230043 | 21 | 133 | 1.6 | 0.0 | 0.00 | 0.00 | 0.00 | 24 | 1005.9 |
| 20260508224544 | 20 | 137 | 3.2 | 0.0 | 0.00 | 0.00 | 0.00 | 22 | 1006.0 |
| 20260508223042 | 21 | 213 | 1.6 | 0.0 | 0.00 | 0.00 | 0.00 | 22 | 1005.7 |
| 20260508221541 | 21 | 230 | 1.6 | 0.0 | 0.00 | 0.00 | 0.00 | 21 | 1006.0 |
| 20260508220040 | 21 | 141 | 1.6 | 0.0 | 0.00 | 0.00 | 0.00 | 16 | 1006.2 |
| 20260508214538 | 21 | 213 | 1.6 | 0.0 | 0.00 | 0.00 | 0.00 | 17 | 1006.3 |
| 20260508213037 | 21 | 223 | 1.6 | 0.0 | 0.00 | 0.00 | 0.00 | 14 | 1006.7 |
| 20260508211536 | 21 | 200 | 1.6 | 0.0 | 0.00 | 0.00 | 0.00 | 15 | 1006.6 |
| 20260508210035 | 21 | 138 | 1.6 | 0.0 | 0.00 | 0.00 | 0.00 | 12 | 1006.8 |
| 20260508204535 | 21 | 217 | 1.6 | 0.0 | 0.00 | 0.00 | 0.00 | 9 | 1006.9 |
| 20260508203037 | 22 | 195 | 0.0 | 0.0 | 0.00 | 0.00 | 0.00 | 11 | 1006.3 |
| 20260508201531 | 22 | 169 | 1.6 | 0.0 | 0.00 | 0.00 | 0.00 | 9 | 1006.9 |
| 20260508200030 | 21 | 236 | 1.6 | 0.0 | 0.00 | 0.00 | 0.00 | 9 | 1006.5 |
| 20260508194528 | 21 | 246 | 1.6 | 0.0 | 0.00 | 0.00 | 0.00 | 9 | 1006.8 |
| 20260508193027 | 21 | 202 | 0.0 | 0.0 | 0.00 | 0.00 | 0.00 | 9 | 1007.3 |
| 20260508191523 | 21 | 192 | 0.0 | 0.0 | 0.00 | 0.00 | 0.00 | 10 | 1007.5 |
| 20260508190035 | 21 | 202 | 0.0 | 0.0 | 0.00 | 0.00 | 0.00 | 11 | 1007.2 |
| 20260508184524 | 20 | 226 | 0.0 | 0.0 | 0.00 | 0.00 | 0.00 | 13 | 1007.2 |
| 20260508183020 | 20 | 339 | 0.0 | 0.0 | 0.00 | 0.00 | 0.00 | 12 | 1007.3 |
| 20260508181517 | 19 | 243 | 0.0 | 0.0 | 0.00 | 0.00 | 0.00 | 13 | 1007.9 |
| 20260508180015 | 18 | 209 | 0.0 | 0.0 | 0.00 | 0.00 | 0.00 | 13 | 1007.8 |
| 20260508174528 | 18 | 215 | 0.0 | 0.0 | 0.00 | 0.00 | 0.00 | 15 | 1007.6 |
| 20260508173011 | 18 | 44 | 0.0 | 0.0 | 0.00 | 0.00 | 0.00 | 21 | 1007.8 |
| 20260508171507 | 17 | 253 | 0.0 | 0.0 | 0.00 | 0.00 | 0.00 | 17 | 1008.0 |
| 20260508170002 | 17 | 253 | 0.0 | 0.0 | 0.00 | 0.00 | 0.00 | 17 | 1007.4 |
| 20260508164604 | 17 | 164 | 0.0 | 0.0 | 0.00 | 0.00 | 0.00 | 22 | 1007.9 |
| 20260508163114 | 16 | 270 | 0.0 | 0.0 | 0.00 | 0.00 | 0.00 | 18 | 1008.0 |
| 20260508161551 | 16 | 161 | 0.0 | 0.0 | 0.00 | 0.00 | 0.00 | 20 | 1008.3 |
| 20260508160050 | 15 | 185 | 0.0 | 0.0 | 0.00 | 0.00 | 0.00 | 20 | 1007.8 |
| 20260508154552 | 14 | 161 | 0.0 | 0.0 | 0.00 | 0.00 | 0.00 | 20 | 1008.2 |
| 20260508153043 | 13 | 147 | 0.0 | 0.0 | 0.00 | 0.00 | 0.00 | 23 | 1008.7 |
| 20260508151541 | 11 | 145 | 0.0 | 0.0 | 0.00 | 0.00 | 0.00 | 28 | 1009.6 |
| 20260508150033 | 10 | 145 | 0.0 | 0.0 | 0.00 | 0.00 | 0.00 | 33 | 1009.1 |
| 20260508144536 | 9 | 145 | 0.0 | 0.0 | 0.00 | 0.00 | 0.00 | 37 | 1009.3 |
| 20260508143027 | 8 | 145 | 0.0 | 0.0 | 0.00 | 0.00 | 0.00 | 40 | 1009.4 |